Location: Nemiskam
(49.4820°N, 111.2775°W)
Time: 09:30:28
(UTC+00:00)

Envisat - Pass Details

Date: 06 December 2022
Orbit: 763 x 765 km, 98.2° (Epoch: 28 January)

Event Time Altitude Azimuth Distance (km) Brightness Sun altitude
Rises 00:25:25 0° 225° (SW) 3,223 7.7 -9.2°
Reaches altitude 10° 00:29:47 10° 261° (W) 2,305 6.9 -9.8°
Maximum altitude 00:31:06 11° 276° (W) 2,243 6.5 -10.0°
Drops below altitude 10° 00:32:26 10° 291° (WNW) 2,310 6.2 -10.2°
Sets 00:36:50 0° 327° (NNW) 3,245 6.4 -10.9°
